QPF
0.01 0.01 0.01 0.01 0.00 0.00 0.00 0.00 0.00 0.01 0.00 0.00 0.01 0.05 0.04 0.03 0.10 0.06 0.00 0.00 0.00 0.00 0.00 0.01 0.24 0.31 0.16 0.07 0.00 0.00 0.00 0.00 0.00 0.00 0.00 0.00 0.00 0.00 0.00 0.00 0.00 0.00 0.00 0.00 0.00 0.00 0.00
0.01 0.00 0.01 0.03 0.03 0.03 0.05 0.02 0.00 0.00 0.00 0.00 0.01 0.04 0.03 0.03 0.13 0.08 0.00 0.00 0.00 0.00 0.00 0.02 0.10 0.16 0.13 0.12 0.00 0.00 0.00 0.00 0.00 0.00 0.00 0.00 0.00 0.00 0.00 0.00 0.00 0.00 0.00 0.00 0.00 0.00 0.00
0.01 0.02 0.04 0.07 0.07 0.18 0.29 0.09 0.01 0.00 0.00 0.00 0.01 0.01 0.05 0.04 0.12 0.05 0.00 0.00 0.00 0.03 0.00 0.06 0.06 0.11 0.04 0.12 0.00 0.00 0.00 0.00 0.00 0.00 0.00 0.00 0.00 0.00 0.00 0.00 0.00 0.00 0.00 0.00 0.00 0.00 0.00
0.02 0.04 0.05 0.07 0.09 0.18 0.61 0.18 0.04 0.00 0.01 0.01 0.01 0.01 0.02 0.05 0.03 0.00 0.00 0.00 0.00 0.03 0.00 0.05 0.06 0.07 0.03 0.04 0.00 0.00 0.00 0.00 0.00 0.00 0.00 0.00 0.00 0.00 0.00 0.00 0.00 0.00 0.00 0.00 0.00 0.00 0.00
0.02 0.03 0.03 0.05 0.05 0.16 0.50 0.19 0.09 0.02 0.03 0.02 0.01 0.04 0.02 0.01 0.00 0.00 0.00 0.00 0.00 0.01 0.01 0.14 0.02 0.09 0.12 0.05 0.00 0.00 0.00 0.00 0.00 0.00 0.00 0.00 0.00 0.00 0.00 0.00 0.00 0.00 0.00 0.00 0.00 0.00 0.00
0.01 0.01 0.01 0.02 0.01 0.02 0.07 0.09 0.05 0.02 0.03 0.02 0.02 0.04 0.04 0.00 0.00 0.02 0.05 0.05 0.07 0.05 0.16 0.19 0.04 0.14 0.13 0.03 0.00 0.00 0.00 0.00 0.00 0.00 0.00 0.00 0.00 0.00 0.00 0.00 0.00 0.00 0.00 0.00 0.00 0.00 0.00
0.00 0.00 0.01 0.01 0.00 0.00 0.01 0.02 0.01 0.00 0.00 0.00 0.00 0.01 0.01 0.00 0.00 0.03 0.09 0.05 0.05 0.18 0.27 0.20 0.10 0.04 0.04 0.00 0.00 0.00 0.00 0.00 0.00 0.00 0.00 0.00 0.00 0.00 0.00 0.00 0.00 0.00 0.00 0.00 0.00 0.00 0.00
0.00 0.01 0.01 0.01 0.00 0.00 0.01 0.02 0.00 0.00 0.00 0.00 0.00 0.01 0.02 0.00 0.00 0.00 0.00 0.01 0.16 0.20 0.31 0.22 0.06 0.02 0.00 0.00 0.00 0.00 0.00 0.00 0.00 0.00 0.00 0.00 0.00 0.00 0.00 0.00 0.00 0.00 0.00 0.00 0.00 0.00 0.00
0.00 0.01 0.01 0.00 0.00 0.00 0.00 0.00 0.00 0.00 0.00 0.00 0.00 0.01 0.00 0.00 0.00 0.02 0.03 0.13 0.14 0.05 0.14 0.19 0.03 0.00 0.00 0.00 0.00 0.00 0.00 0.00 0.00 0.00 0.00 0.00 0.00 0.00 0.00 0.00 0.00 0.00 0.00 0.00 0.00 0.00 0.00
0.00 0.00 0.01 0.00 0.00 0.00 0.00 0.00 0.00 0.00 0.00 0.00 0.00 0.01 0.01 0.00 0.00 0.03 0.10 0.10 0.03 0.01 0.02 0.11 0.01 0.00 0.00 0.00 0.00 0.00 0.00 0.00 0.00 0.00 0.00 0.00 0.00 0.00 0.00 0.00 0.00 0.00 0.00 0.00 0.00 0.00 0.00
0.00 0.00 0.00 0.00 0.00 0.00 0.00 0.00 0.00 0.00 0.00 0.00 0.00 0.00 0.00 0.00 0.00 0.01 0.02 0.01 0.00 0.00 0.02 0.05 0.00 0.00 0.00 0.00 0.00 0.00 0.00 0.00 0.00 0.00 0.00 0.00 0.00 0.00 0.00 0.00 0.00 0.00 0.00 0.00 0.00 0.01 0.01
0.00 0.00 0.00 0.00 0.00 0.00 0.00 0.00 0.00 0.00 0.00 0.00 0.00 0.00 0.00 0.00 0.00 0.00 0.00 0.00 0.00 0.00 0.02 0.01 0.00 0.00 0.00 0.00 0.00 0.00 0.00 0.00 0.00 0.00 0.00 0.00 0.00 0.00 0.00 0.00 0.00 0.00 0.00 0.00 0.00 0.00 0.00
0.00 0.00 0.00 0.00 0.00 0.00 0.00 0.00 0.00 0.00 0.00 0.00 0.00 0.00 0.00 0.00 0.00 0.00 0.00 0.00 0.00 0.01 0.01 0.00 0.00 0.00 0.00 0.00 0.00 0.00 0.00 0.00 0.00 0.00 0.00 0.00 0.00 0.00 0.00 0.00 0.00 0.00 0.00 0.00 0.00 0.00 0.00
0.00 0.00 0.00 0.00 0.00 0.00 0.00 0.00 0.00 0.00 0.00 0.00 0.00 0.00 0.00 0.00 0.00 0.00 0.00 0.00 0.00 0.01 0.00 0.00 0.00 0.00 0.00 0.00 0.00 0.00 0.00 0.00 0.00 0.00 0.00 0.00 0.00 0.00 0.00 0.00 0.00 0.00 0.00 0.00 0.00 0.00 0.00
0.00 0.00 0.00 0.00 0.00 0.00 0.00 0.00 0.00 0.00 0.00 0.00 0.00 0.00 0.00 0.00 0.00 0.00 0.00 0.00 0.00 0.00 0.00 0.00 0.00 0.00 0.00 0.00 0.00 0.00 0.00 0.00 0.00 0.00 0.00 0.00 0.00 0.00 0.00 0.00 0.00 0.00 0.00 0.00 0.00 0.00 0.00
0.00 0.00 0.00 0.00 0.00 0.00 0.00 0.00 0.00 0.00 0.00 0.00 0.00 0.00 0.00 0.00 0.00 0.00 0.00 0.00 0.00 0.00 0.00 0.00 0.00 0.00 0.00 0.00 0.00 0.00 0.00 0.00 0.00 0.00 0.00 0.00 0.00 0.00 0.00 0.00 0.00 0.00 0.00 0.00 0.00 0.00 0.00
0.00 0.00 0.00 0.00 0.00 0.00 0.00 0.00 0.00 0.00 0.00 0.00 0.00 0.00 0.00 0.00 0.00 0.00 0.00 0.00 0.00 0.00 0.00 0.00 0.00 0.00 0.00 0.00 0.00 0.00 0.00 0.00 0.00 0.00 0.00 0.00 0.00 0.00 0.00 0.00 0.00 0.00 0.00 0.00 0.00 0.00 0.00
0.00 0.00 0.00 0.00 0.00 0.00 0.00 0.00 0.00 0.00 0.00 0.00 0.00 0.00 0.00 0.00 0.00 0.00 0.00 0.00 0.00 0.00 0.00 0.00 0.00 0.00 0.00 0.00 0.00 0.00 0.00 0.00 0.00 0.00 0.00 0.00 0.00 0.00 0.00 0.00 0.00 0.00 0.00 0.00 0.00 0.00 0.00
0.00 0.00 0.00 0.00 0.00 0.00 0.00 0.00 0.00 0.00 0.00 0.00 0.00 0.00 0.00 0.00 0.00 0.00 0.00 0.00 0.00 0.00 0.00 0.00 0.00 0.00 0.00 0.00 0.00 0.00 0.00 0.00 0.00 0.00 0.00 0.00 0.00 0.00 0.00 0.00 0.00 0.00 0.00 0.00 0.00 0.00 0.00
0.00 0.00 0.00 0.00 0.00 0.00 0.00 0.00 0.00 0.00 0.00 0.00 0.00 0.00 0.00 0.00 0.00 0.00 0.00 0.00 0.00 0.00 0.00 0.00 0.00 0.00 0.00 0.00 0.00 0.00 0.00 0.00 0.00 0.00 0.00 0.00 0.00 0.00 0.00 0.00 0.00 0.00 0.00 0.00 0.00 0.00 0.00
0.00 0.00 0.00 0.00 0.00 0.00 0.00 0.00 0.00 0.00 0.00 0.00 0.00 0.00 0.00 0.00 0.00 0.00 0.00 0.00 0.00 0.00 0.00 0.00 0.00 0.00 0.00 0.00 0.00 0.00 0.00 0.00 0.00 0.00 0.00 0.00 0.00 0.00 0.00 0.00 0.00 0.00 0.00 0.00 0.00 0.00 0.00
0.00 0.00 0.00 0.00 0.00 0.00 0.00 0.00 0.00 0.00 0.00 0.00 0.00 0.00 0.00 0.00 0.00 0.00 0.00 0.00 0.00 0.00 0.00 0.00 0.00 0.00 0.00 0.00 0.00 0.00 0.00 0.00 0.00 0.00 0.00 0.00 0.00 0.00 0.00 0.00 0.00 0.00 0.00 0.00 0.00 0.00 0.00
0.00 0.00 0.00 0.00 0.00 0.00 0.00 0.00 0.00 0.00 0.00 0.00 0.00 0.00 0.00 0.00 0.00 0.00 0.00 0.00 0.00 0.00 0.00 0.00 0.00 0.00 0.00 0.00 0.00 0.00 0.00 0.00 0.00 0.00 0.00 0.00 0.00 0.00 0.00 0.00 0.00 0.00 0.00 0.00 0.00 0.00 0.00
0.00 0.00 0.00 0.00 0.00 0.00 0.00 0.00 0.00 0.00 0.00 0.00 0.00 0.00 0.00 0.00 0.00 0.00 0.00 0.00 0.00 0.00 0.00 0.00 0.00 0.00 0.00 0.00 0.00 0.00 0.00 0.00 0.00 0.00 0.00 0.00 0.00 0.00 0.00 0.00 0.00 0.00 0.00 0.00 0.00 0.00 0.00
0.00 0.00 0.00 0.00 0.00 0.00 0.00 0.00 0.00 0.00 0.00 0.00 0.00 0.00 0.00 0.00 0.00 0.00 0.00 0.00 0.00 0.00 0.00 0.00 0.00 0.00 0.00 0.00 0.00 0.00 0.00 0.00 0.00 0.00 0.00 0.00 0.00 0.00 0.00 0.00 0.00 0.00 0.00 0.00 0.00 0.00 0.00
0.00 0.00 0.00 0.00 0.00 0.00 0.00 0.00 0.00 0.00 0.00 0.00 0.00 0.00 0.00 0.00 0.00 0.00 0.00 0.00 0.00 0.00 0.00 0.00 0.00 0.00 0.00 0.00 0.00 0.00 0.00 0.00 0.00 0.00 0.00 0.00 0.00 0.00 0.00 0.00 0.00 0.00 0.00 0.00 0.00 0.00 0.00
0.00 0.00 0.00 0.00 0.00 0.00 0.00 0.00 0.00 0.00 0.00 0.00 0.00 0.00 0.00 0.00 0.00 0.00 0.00 0.00 0.00 0.00 0.00 0.00 0.00 0.00 0.00 0.00 0.00 0.00 0.00 0.00 0.00 0.00 0.00 0.00 0.00 0.00 0.00 0.00 0.00 0.00 0.00 0.00 0.00 0.00 0.00
0.00 0.00 0.00 0.00 0.00 0.00 0.00 0.00 0.00 0.00 0.00 0.00 0.00 0.00 0.00 0.00 0.00 0.00 0.00 0.00 0.00 0.00 0.00 0.00 0.00 0.00 0.00 0.00 0.00 0.00 0.00 0.00 0.00 0.00 0.00 0.00 0.00 0.00 0.00 0.00 0.00 0.00 0.00 0.00 0.00 0.00 0.00
0.00 0.00 0.00 0.00 0.00 0.00 0.00 0.00 0.00 0.00 0.00 0.00 0.00 0.00 0.00 0.00 0.00 0.00 0.00 0.00 0.00 0.00 0.00 0.00 0.00 0.00 0.00 0.00 0.00 0.00 0.00 0.00 0.00 0.00 0.00 0.00 0.00 0.00 0.00 0.00 0.00 0.00 0.00 0.00 0.00 0.00 0.00
MSLP
1017.51 1016.99 1016.36 1016.00 1015.59 1015.30 1015.03 1014.94 1015.06 1015.25 1015.19 1015.15 1014.95 1014.89 1014.88 1015.02 1014.99 1015.61 1015.32 1015.38 1015.34 1015.66 1015.85 1015.94 1015.58 1015.48 1016.70 1017.02 1018.19 1017.68 1017.32 1017.53 1017.39 1017.40 1018.11 1018.67 1019.26 1019.91 1020.96 1021.47 1021.63 1021.77 1022.14 1021.89 1021.60 1021.56 1021.46
1017.42 1016.70 1016.01 1015.46 1014.92 1014.47 1014.23 1014.75 1014.90 1015.13 1015.08 1015.05 1015.00 1015.12 1014.85 1015.16 1015.28 1015.52 1015.34 1015.43 1015.45 1015.55 1015.53 1015.43 1015.69 1015.89 1016.36 1017.55 1018.19 1017.93 1017.60 1017.70 1017.86 1017.91 1018.74 1019.03 1019.63 1019.94 1021.01 1021.91 1022.01 1022.38 1022.44 1021.92 1021.54 1021.53 1021.42
1017.26 1016.32 1015.48 1014.77 1014.03 1013.64 1014.60 1014.79 1014.99 1014.96 1015.02 1015.11 1015.22 1015.09 1015.04 1015.18 1015.51 1015.51 1015.30 1015.41 1015.46 1015.53 1015.55 1015.97 1016.08 1015.71 1016.52 1018.47 1018.38 1018.01 1017.86 1018.32 1018.32 1018.41 1019.05 1019.49 1019.63 1020.17 1021.30 1022.27 1022.55 1022.73 1022.54 1021.79 1021.59 1021.48 1021.30
1017.13 1016.39 1015.59 1014.90 1014.49 1014.37 1015.26 1015.22 1015.06 1015.08 1015.12 1015.33 1015.45 1015.16 1015.17 1015.17 1015.20 1015.19 1015.19 1015.40 1015.49 1015.54 1015.43 1015.74 1015.82 1016.11 1017.89 1018.67 1018.57 1018.34 1018.37 1018.81 1018.81 1018.81 1019.23 1019.84 1019.83 1020.78 1021.86 1022.69 1023.11 1023.34 1023.12 1022.90 1022.17 1021.72 1021.27
1017.52 1016.94 1016.00 1015.91 1015.86 1016.18 1016.13 1016.03 1015.80 1015.69 1015.60 1015.76 1015.57 1015.35 1015.25 1015.15 1015.05 1014.96 1014.84 1015.08 1015.45 1015.61 1015.57 1016.04 1016.17 1016.06 1018.86 1018.88 1018.54 1018.73 1018.61 1019.17 1019.39 1019.52 1019.71 1019.89 1020.52 1022.27 1022.88 1023.35 1024.01 1024.28 1024.26 1023.90 1022.59 1021.85 1021.53
1017.90 1017.40 1016.73 1016.78 1016.58 1016.45 1016.33 1016.42 1016.35 1016.27 1016.34 1016.10 1015.83 1015.68 1015.50 1015.33 1015.08 1014.07 1013.36 1014.12 1015.51 1015.93 1016.24 1015.96 1016.09 1016.65 1019.56 1019.25 1019.13 1019.24 1019.32 1019.31 1019.88 1020.17 1020.39 1020.96 1022.06 1023.09 1023.97 1024.10 1024.99 1025.08 1025.01 1024.39 1023.53 1022.22 1021.83
1018.47 1018.01 1017.65 1017.29 1017.08 1016.91 1016.58 1016.43 1016.56 1016.69 1016.55 1016.53 1016.29 1016.15 1015.71 1015.56 1015.28 1015.03 1014.84 1015.09 1016.31 1017.07 1017.36 1017.65 1017.81 1017.96 1019.39 1019.54 1019.53 1019.89 1019.67 1019.75 1020.24 1020.88 1021.72 1022.37 1023.16 1024.04 1024.53 1024.65 1024.85 1025.23 1025.44 1025.11 1023.43 1022.58 1022.28
1019.07 1018.64 1018.32 1018.00 1017.74 1017.44 1017.03 1017.03 1017.06 1017.11 1016.87 1016.73 1016.64 1016.35 1015.82 1015.66 1015.43 1015.29 1015.49 1016.47 1017.73 1018.27 1018.51 1018.88 1018.40 1019.27 1019.65 1019.65 1020.17 1020.24 1020.04 1020.56 1020.89 1021.83 1022.29 1022.99 1023.74 1024.17 1024.42 1024.71 1025.00 1025.42 1025.44 1024.80 1023.35 1022.71 1022.16
1019.95 1019.39 1018.86 1018.51 1018.22 1017.90 1017.63 1017.51 1017.35 1017.29 1017.12 1016.89 1016.92 1016.20 1016.20 1016.05 1015.98 1016.21 1016.64 1017.65 1018.34 1018.33 1019.32 1020.35 1020.11 1020.24 1020.17 1020.12 1020.68 1020.86 1020.71 1020.86 1021.40 1022.08 1022.79 1023.28 1023.81 1023.96 1024.31 1024.71 1025.07 1025.20 1025.13 1024.65 1024.01 1022.67 1021.35
1020.78 1020.28 1019.79 1019.36 1018.94 1018.54 1018.32 1018.01 1017.81 1017.65 1017.42 1017.00 1017.02 1016.16 1016.38 1016.36 1016.61 1017.50 1018.25 1018.00 1017.99 1018.04 1019.46 1021.61 1020.86 1020.61 1020.43 1020.40 1021.16 1021.08 1020.99 1021.19 1021.60 1022.49 1022.98 1023.41 1023.60 1023.91 1024.22 1024.50 1024.67 1024.71 1023.96 1023.83 1023.33 1022.79 1021.75
1021.49 1021.07 1020.72 1020.27 1019.91 1019.41 1018.98 1018.57 1018.23 1018.02 1017.80 1017.47 1017.01 1016.99 1016.90 1017.07 1017.75 1018.09 1018.85 1018.35 1017.93 1018.27 1019.93 1022.34 1021.29 1020.68 1020.81 1020.98 1021.52 1021.27 1021.15 1021.06 1021.93 1022.54 1023.19 1023.64 1023.63 1023.89 1024.08 1023.92 1024.00 1023.46 1023.16 1022.99 1022.59 1022.40 1021.99
1022.14 1021.70 1021.19 1020.90 1020.54 1020.15 1019.65 1019.22 1018.88 1018.55 1018.08 1017.96 1017.52 1017.17 1017.14 1017.68 1018.05 1018.84 1018.69 1017.97 1018.11 1018.79 1021.90 1022.44 1021.71 1021.15 1021.10 1021.35 1021.60 1021.52 1021.44 1021.52 1022.18 1022.75 1023.32 1023.61 1023.58 1023.61 1023.25 1023.09 1023.05 1022.61 1022.34 1022.08 1022.11 1022.22 1022.23
1022.74 1022.20 1021.66 1021.25 1020.87 1020.47 1020.04 1019.63 1019.21 1018.82 1018.53 1018.23 1018.31 1018.03 1017.71 1018.23 1018.96 1018.24 1018.29 1018.65 1019.23 1020.74 1023.26 1022.84 1022.21 1021.65 1021.46 1021.93 1021.83 1021.84 1021.99 1022.11 1022.72 1023.38 1023.95 1023.72 1023.41 1023.02 1022.87 1022.90 1022.66 1022.28 1021.77 1021.82 1022.07 1022.23 1021.30
1023.12 1022.71 1022.23 1021.70 1021.14 1020.68 1020.21 1019.64 1019.21 1018.84 1018.64 1018.56 1018.35 1018.21 1018.47 1018.51 1018.72 1018.38 1018.37 1019.09 1020.81 1022.72 1022.60 1022.52 1022.15 1021.92 1022.12 1022.26 1022.35 1022.43 1022.66 1022.94 1022.98 1023.29 1024.08 1023.96 1023.24 1022.43 1022.22 1021.95 1021.68 1021.54 1021.40 1021.54 1021.92 1021.80 1020.95
1023.27 1022.98 1022.60 1022.07 1021.57 1020.95 1020.34 1019.84 1019.40 1019.04 1018.59 1018.34 1018.53 1019.12 1018.98 1018.62 1018.34 1018.41 1018.89 1020.72 1022.52 1022.49 1022.43 1022.41 1022.53 1022.47 1022.55 1022.36 1022.55 1022.80 1022.79 1022.75 1022.54 1022.82 1023.08 1023.00 1022.26 1021.41 1021.34 1021.05 1021.04 1020.97 1021.04 1020.94 1021.02 1021.06 1021.14
1023.64 1023.14 1022.79 1022.39 1021.82 1021.35 1020.68 1020.00 1019.48 1019.11 1018.81 1018.52 1019.13 1019.43 1019.34 1018.83 1018.75 1019.11 1019.72 1022.11 1022.65 1022.27 1022.03 1022.05 1022.23 1022.35 1022.56 1022.62 1022.80 1022.68 1022.44 1022.12 1022.04 1022.12 1022.08 1022.51 1022.22 1021.20 1020.85 1020.72 1020.70 1020.79 1021.04 1021.01 1020.92 1021.20 1021.02
1023.95 1023.45 1022.96 1022.44 1022.15 1021.55 1020.99 1020.35 1019.66 1019.05 1018.61 1018.67 1019.31 1019.52 1019.28 1018.95 1019.18 1019.94 1021.61 1022.54 1022.27 1021.91 1021.66 1021.66 1021.77 1021.99 1022.18 1022.36 1022.40 1022.38 1022.19 1021.85 1021.63 1021.98 1021.99 1022.08 1022.33 1021.44 1021.02 1020.66 1020.34 1020.88 1020.75 1020.97 1021.17 1021.31 1021.24
1024.09 1023.73 1023.24 1022.80 1022.25 1021.90 1021.27 1020.53 1019.93 1019.05 1018.87 1019.13 1019.47 1020.05 1019.14 1019.31 1020.13 1022.03 1022.93 1022.57 1022.00 1021.70 1021.35 1021.30 1021.40 1021.55 1021.73 1021.92 1022.04 1021.99 1021.86 1021.60 1021.42 1021.60 1022.01 1022.23 1022.49 1022.11 1021.04 1020.43 1020.25 1020.26 1020.37 1020.75 1021.34 1021.41 1021.18
1024.36 1023.86 1023.39 1023.01 1022.55 1021.97 1021.46 1020.74 1020.17 1019.59 1019.26 1019.72 1020.48 1020.37 1019.02 1018.82 1021.56 1022.87 1022.68 1022.34 1021.91 1021.54 1021.41 1021.13 1021.16 1021.16 1021.30 1021.60 1021.86 1021.71 1021.49 1021.23 1021.33 1021.57 1021.85 1022.29 1022.75 1022.75 1021.45 1020.96 1020.68 1020.60 1020.52 1020.67 1021.06 1021.47 1020.88
1024.76 1024.16 1023.67 1023.21 1022.77 1022.34 1021.68 1020.96 1020.36 1019.78 1019.37 1019.94 1021.21 1021.57 1021.11 1021.28 1022.56 1022.38 1022.49 1022.39 1021.72 1021.22 1021.14 1021.06 1021.08 1020.99 1021.20 1021.54 1021.67 1021.71 1021.50 1021.30 1021.39 1021.42 1021.55 1022.05 1022.79 1022.89 1022.33 1021.13 1020.77 1020.59 1020.45 1020.62 1020.97 1021.42 1020.34
1024.91 1024.47 1023.91 1023.49 1023.11 1022.64 1022.07 1021.23 1020.53 1019.89 1019.41 1020.08 1022.00 1023.35 1023.41 1023.17 1023.01 1022.62 1022.16 1021.97 1021.66 1021.31 1020.88 1020.83 1021.18 1021.42 1021.58 1021.63 1021.60 1021.64 1021.49 1021.38 1021.47 1021.39 1021.85 1022.42 1022.78 1022.62 1021.92 1021.04 1020.69 1020.10 1019.89 1020.11 1020.28 1019.73 1019.69
1024.99 1024.76 1024.31 1023.85 1023.35 1022.87 1022.46 1021.74 1020.82 1020.10 1019.50 1020.71 1022.63 1023.24 1023.60 1023.38 1023.38 1022.89 1022.26 1022.04 1021.54 1021.19 1020.83 1020.85 1020.92 1021.09 1021.21 1021.28 1021.17 1021.32 1021.37 1021.55 1021.59 1021.91 1022.28 1022.84 1022.93 1022.89 1022.01 1020.60 1020.16 1019.45 1018.84 1018.87 1018.98 1018.76 1018.41
1024.79 1024.74 1024.57 1024.23 1023.82 1023.26 1022.80 1022.20 1021.53 1020.60 1019.88 1021.48 1022.95 1023.03 1022.98 1023.68 1023.43 1023.29 1022.77 1022.17 1021.70 1021.45 1020.99 1020.89 1020.91 1021.10 1021.08 1020.46 1020.30 1020.22 1020.38 1020.73 1021.06 1021.53 1022.10 1022.64 1022.98 1023.19 1022.17 1020.78 1019.88 1018.63 1017.29 1017.45 1017.32 1017.08 1017.00
1024.59 1024.55 1024.52 1024.40 1024.16 1023.79 1023.17 1022.60 1022.04 1021.56 1021.38 1021.97 1022.79 1022.90 1023.30 1023.94 1023.44 1023.03 1022.56 1022.29 1022.17 1022.16 1022.03 1021.51 1021.66 1021.55 1021.01 1020.60 1020.68 1020.75 1020.99 1021.08 1021.43 1021.56 1021.68 1022.38 1023.01 1023.20 1022.21 1020.64 1019.32 1016.98 1016.43 1016.44 1016.41 1016.06 1016.01
1024.35 1024.25 1024.34 1024.29 1024.20 1024.05 1023.66 1023.07 1022.58 1022.16 1022.07 1022.47 1022.76 1022.88 1023.28 1023.51 1023.34 1022.72 1022.32 1022.13 1022.09 1022.15 1022.31 1022.17 1021.70 1021.66 1021.56 1021.47 1021.59 1021.13 1021.00 1021.26 1021.29 1021.43 1021.72 1022.19 1022.42 1022.47 1022.11 1021.09 1018.15 1016.12 1015.75 1015.87 1015.99 1015.40 1014.98
1024.27 1024.04 1023.99 1024.14 1024.11 1023.99 1023.89 1023.52 1023.08 1022.55 1022.37 1022.94 1023.29 1023.17 1023.05 1023.49 1022.96 1022.34 1022.26 1022.27 1022.31 1022.28 1022.34 1021.87 1021.56 1021.35 1021.51 1022.17 1022.48 1022.42 1022.07 1021.64 1021.68 1021.70 1021.92 1022.26 1022.63 1022.87 1022.82 1021.70 1018.64 1015.82 1015.25 1015.02 1015.21 1015.32 1014.79
1024.02 1023.86 1023.74 1023.80 1023.95 1023.91 1023.81 1023.73 1023.41 1023.02 1022.49 1022.96 1023.48 1023.51 1023.35 1023.62 1022.67 1022.31 1022.12 1022.07 1022.14 1022.50 1022.56 1022.04 1021.70 1021.72 1021.80 1022.51 1022.87 1022.94 1022.50 1022.14 1022.21 1021.99 1022.14 1022.40 1022.58 1022.48 1022.06 1021.20 1018.39 1015.87 1015.65 1015.60 1015.42 1015.14 1014.28
1023.60 1023.59 1023.52 1023.49 1023.59 1023.65 1023.71 1023.65 1023.55 1023.18 1022.81 1022.83 1023.37 1023.51 1023.79 1023.65 1022.53 1022.15 1021.80 1021.72 1022.12 1022.11 1022.26 1022.16 1022.48 1022.43 1022.57 1022.99 1023.27 1023.07 1023.04 1022.55 1022.49 1021.60 1021.14 1021.29 1021.45 1021.58 1021.31 1020.25 1017.77 1015.77 1015.98 1015.80 1015.03 1014.65 1014.69
1023.15 1023.10 1023.11 1023.18 1023.27 1023.24 1023.44 1023.51 1023.41 1023.19 1023.01 1022.94 1023.46 1023.39 1023.44 1023.72 1022.56 1021.91 1021.21 1020.88 1020.91 1020.98 1021.42 1022.05 1022.17 1022.27 1022.29 1022.92 1023.31 1023.21 1023.08 1022.78 1022.43 1021.99 1020.80 1020.70 1019.51 1019.53 1019.36 1017.47 1015.77 1015.37 1014.51 1014.18 1014.23 1014.37 1014.30
Thickness
5518 5499 5489 5472 5454 5440 5434 5429 5426 5423 5419 5417 5416 5416 5418 5420 5428 5428 5436 5447 5461 5473 5489 5506 5521 5533 5529 5535 5531 5547 5557 5563 5574 5581 5581 5582 5581 5580 5576 5575 5578 5582 5575 5581 5585 5584 5586
5511 5499 5485 5468 5453 5438 5436 5424 5419 5414 5414 5411 5409 5406 5410 5413 5421 5423 5430 5439 5450 5467 5483 5500 5511 5522 5529 5528 5525 5538 5551 5560 5566 5572 5569 5573 5575 5575 5569 5564 5571 5564 5567 5571 5575 5577 5579
5509 5498 5487 5475 5459 5438 5424 5418 5413 5410 5410 5406 5402 5402 5403 5408 5414 5418 5427 5434 5444 5460 5475 5487 5501 5520 5527 5517 5522 5534 5545 5550 5557 5563 5563 5565 5569 5569 5564 5559 5556 5557 5566 5568 5572 5573 5576
5509 5498 5488 5476 5461 5439 5419 5416 5413 5407 5404 5400 5396 5398 5400 5407 5413 5419 5425 5433 5442 5457 5474 5487 5499 5513 5510 5510 5517 5528 5537 5542 5549 5556 5558 5557 5562 5557 5553 5548 5544 5543 5548 5563 5563 5563 5569
5508 5496 5488 5473 5455 5433 5418 5407 5401 5397 5395 5391 5393 5393 5399 5408 5416 5424 5430 5437 5443 5456 5472 5485 5495 5512 5503 5508 5516 5524 5534 5536 5541 5547 5550 5554 5551 5538 5537 5532 5534 5529 5552 5538 5552 5556 5559
5509 5497 5488 5474 5457 5440 5423 5406 5396 5392 5385 5389 5391 5392 5402 5413 5422 5436 5447 5447 5447 5457 5470 5486 5499 5512 5494 5502 5513 5520 5526 5533 5534 5539 5542 5540 5528 5523 5517 5520 5527 5538 5530 5525 5529 5550 5546
5509 5499 5487 5477 5462 5447 5434 5417 5401 5395 5394 5392 5393 5397 5412 5419 5427 5433 5440 5443 5445 5455 5466 5476 5485 5496 5492 5502 5510 5513 5522 5528 5529 5527 5525 5521 5516 5514 5521 5517 5516 5511 5507 5506 5521 5534 5529
5512 5501 5489 5480 5467 5455 5445 5431 5417 5409 5407 5405 5406 5412 5423 5429 5433 5437 5440 5441 5442 5450 5460 5470 5488 5488 5493 5502 5502 5509 5519 5519 5522 5514 5517 5515 5504 5516 5514 5511 5513 5506 5498 5502 5521 5521 5529
5513 5504 5495 5485 5475 5464 5455 5446 5437 5428 5424 5424 5421 5432 5433 5436 5438 5439 5441 5442 5446 5459 5458 5460 5475 5482 5491 5500 5498 5504 5514 5517 5515 5515 5511 5511 5517 5513 5516 5511 5505 5493 5493 5498 5511 5520 5533
5515 5506 5498 5488 5482 5474 5465 5458 5449 5443 5440 5442 5439 5448 5444 5445 5446 5442 5440 5450 5461 5469 5468 5456 5472 5484 5492 5499 5495 5504 5509 5515 5515 5509 5509 5509 5512 5512 5508 5507 5499 5492 5504 5506 5509 5517 5530
5520 5510 5501 5493 5486 5481 5475 5470 5463 5457 5454 5452 5455 5454 5454 5452 5448 5450 5452 5462 5474 5480 5461 5463 5476 5489 5492 5495 5496 5503 5509 5517 5509 5510 5503 5505 5507 5506 5505 5501 5501 5522 5515 5515 5522 5517 5517
5526 5516 5509 5500 5493 5489 5486 5482 5476 5472 5470 5465 5467 5468 5467 5463 5463 5462 5467 5479 5484 5470 5459 5464 5475 5484 5492 5494 5497 5504 5508 5511 5507 5505 5500 5501 5504 5504 5508 5510 5507 5513 5517 5522 5520 5514 5504
5532 5526 5518 5509 5503 5498 5497 5494 5490 5488 5485 5484 5479 5479 5480 5477 5472 5482 5485 5485 5472 5477 5458 5469 5479 5491 5502 5493 5500 5505 5503 5502 5492 5478 5461 5492 5501 5503 5505 5506 5506 5514 5523 5523 5503 5489 5526
5538 5533 5527 5520 5513 5510 5506 5507 5506 5502 5500 5497 5494 5494 5491 5490 5490 5495 5495 5489 5466 5470 5476 5480 5490 5501 5495 5497 5497 5499 5496 5479 5496 5495 5463 5464 5491 5507 5508 5519 5526 5526 5528 5527 5526 5508 5519
5547 5540 5535 5531 5524 5520 5518 5516 5516 5515 5514 5513 5509 5501 5500 5503 5505 5506 5499 5485 5461 5481 5484 5483 5487 5488 5483 5505 5499 5496 5496 5498 5505 5497 5490 5494 5493 5522 5514 5522 5529 5527 5526 5526 5524 5516 5518
5552 5549 5543 5540 5537 5530 5528 5527 5526 5524 5523 5522 5515 5509 5507 5510 5511 5507 5497 5489 5474 5487 5491 5494 5496 5495 5494 5498 5497 5498 5503 5511 5515 5511 5513 5510 5508 5525 5529 5527 5525 5523 5520 5515 5517 5521 5510
5559 5555 5552 5548 5544 5542 5538 5537 5537 5537 5535 5531 5523 5523 5518 5518 5516 5503 5483 5481 5496 5498 5503 5503 5500 5500 5503 5505 5505 5504 5511 5516 5519 5512 5516 5518 5515 5519 5525 5522 5530 5518 5515 5515 5515 5512 5513
5565 5561 5558 5554 5552 5549 5549 5548 5546 5549 5546 5541 5534 5522 5534 5526 5508 5487 5494 5500 5506 5512 5512 5514 5513 5512 5510 5509 5513 5512 5517 5519 5520 5519 5522 5519 5515 5517 5519 5531 5526 5530 5527 5512 5508 5511 5502
5569 5567 5565 5561 5558 5558 5557 5559 5556 5555 5554 5547 5539 5534 5545 5544 5508 5485 5512 5514 5517 5518 5516 5521 5524 5525 5523 5520 5525 5519 5524 5529 5520 5521 5521 5516 5508 5501 5517 5525 5523 5525 5521 5518 5503 5492 5501
5570 5569 5568 5567 5565 5562 5562 5565 5565 5564 5563 5556 5543 5532 5537 5528 5514 5524 5527 5523 5532 5530 5529 5528 5527 5530 5533 5529 5522 5527 5532 5533 5520 5523 5528 5522 5501 5505 5503 5528 5524 5522 5515 5514 5507 5488 5509
5571 5569 5570 5570 5569 5568 5565 5568 5570 5572 5571 5564 5542 5530 5527 5521 5532 5528 5533 5537 5540 5539 5537 5535 5538 5529 5530 5536 5533 5532 5531 5530 5523 5530 5522 5514 5505 5493 5505 5515 5516 5522 5524 5512 5506 5513 5514
5573 5570 5568 5568 5569 5569 5569 5570 5572 5574 5577 5563 5551 5545 5530 5527 5527 5539 5540 5539 5544 5544 5546 5550 5548 5541 5537 5539 5540 5538 5533 5528 5528 5526 5517 5505 5504 5504 5492 5521 5519 5516 5520 5515 5520 5520 5514
5574 5571 5568 5566 5567 5568 5569 5570 5571 5574 5577 5560 5546 5545 5549 5534 5535 5539 5538 5543 5546 5543 5549 5547 5546 5539 5538 5541 5540 5539 5537 5534 5533 5530 5520 5511 5501 5491 5505 5516 5515 5529 5538 5524 5531 5528 5532
5574 5571 5568 5565 5563 5564 5566 5568 5569 5569 5568 5560 5552 5549 5547 5548 5539 5543 5549 5548 5545 5539 5539 5543 5538 5540 5546 5541 5537 5535 5527 5522 5518 5517 5520 5512 5505 5489 5497 5512 5517 5555 5545 5538 5536 5540 5533
5572 5571 5567 5565 5562 5560 5561 5564 5565 5566 5563 5558 5552 5552 5545 5546 5536 5546 5550 5550 5547 5541 5536 5536 5541 5537 5532 5532 5533 5541 5536 5541 5532 5518 5511 5510 5511 5501 5493 5488 5539 5564 5548 5544 5545 5545 5542
5569 5567 5566 5563 5561 5559 5558 5559 5561 5562 5561 5556 5549 5547 5546 5542 5544 5554 5550 5549 5541 5538 5534 5540 5541 5537 5534 5520 5523 5541 5538 5541 5539 5532 5504 5503 5499 5503 5482 5493 5535 5555 5552 5545 5543 5531 5541
5566 5564 5562 5560 5557 5556 5554 5553 5555 5557 5559 5555 5548 5545 5542 5540 5541 5545 5544 5545 5538 5532 5530 5531 5540 5538 5532 5519 5527 5518 5512 5520 5525 5531 5512 5503 5493 5497 5491 5485 5515 5534 5539 5535 5543 5545 5543
5561 5561 5560 5557 5554 5553 5551 5549 5548 5552 5555 5555 5549 5545 5540 5535 5540 5541 5546 5541 5533 5530 5536 5537 5533 5526 5518 5523 5516 5514 5506 5506 5507 5512 5512 5509 5492 5483 5476 5481 5496 5526 5524 5534 5535 5532 5532
5559 5557 5557 5555 5552 5551 5549 5546 5543 5545 5548 5550 5546 5545 5541 5536 5545 5543 5546 5548 5546 5543 5532 5525 5531 5525 5522 5515 5505 5503 5513 5489 5497 5511 5507 5508 5517 5513 5501 5512 5523 5513 5528 5526 5521 5525 5529